QTR31M OBBI-OTHH

Flight info

Callsign QTR31M
Flight time 0h 39m
Altitude 15000
Route GOLKO DCT HAYYA
Aircraft A35K/H-SDE2E3GHIJ3J4J5LM1ORWXY/LB1D1

Departure

Time 2026-05-04 20:06
Airport Bahrain International Airport (OBBI)

Arrival

Time 2026-05-04 20:45
Airport Hamad International Airport (OTHH)
Time Latitude Longitude Altitude Speed Heading
2026-05-04 19:34 26.26991 50.62775 27 ft 0 kts 213°
2026-05-04 19:57 26.26998 50.62780 27 ft 4 kts 213°
2026-05-04 19:57 26.27021 50.62796 26 ft 4 kts 212°
2026-05-04 19:57 26.27043 50.62812 25 ft 3 kts 212°
2026-05-04 19:58 26.27063 50.62822 25 ft 4 kts 165°
2026-05-04 19:58 26.27081 50.62806 25 ft 4 kts 121°
2026-05-04 19:58 26.27089 50.62791 26 ft 0 kts 123°
2026-05-04 20:01 26.27080 50.62806 27 ft 8 kts 122°
2026-05-04 20:01 26.27040 50.62877 28 ft 12 kts 125°
2026-05-04 20:01 26.26987 50.62967 28 ft 16 kts 122°
2026-05-04 20:01 26.26924 50.63082 27 ft 19 kts 121°
2026-05-04 20:02 26.26846 50.63212 27 ft 21 kts 123°
2026-05-04 20:02 26.26760 50.63359 27 ft 24 kts 123°
2026-05-04 20:02 26.26664 50.63524 27 ft 26 kts 122°
2026-05-04 20:02 26.26569 50.63706 27 ft 25 kts 97°
2026-05-04 20:03 26.26600 50.63839 27 ft 15 kts 116°
2026-05-04 20:03 26.26545 50.63946 28 ft 17 kts 122°
2026-05-04 20:03 26.26469 50.64070 31 ft 22 kts 124°
2026-05-04 20:03 26.26375 50.64230 31 ft 27 kts 122°
2026-05-04 20:04 26.26265 50.64420 30 ft 31 kts 123°
2026-05-04 20:04 26.26145 50.64631 30 ft 33 kts 122°
2026-05-04 20:04 26.26021 50.64847 27 ft 24 kts 123°
2026-05-04 20:04 26.26024 50.64933 26 ft 12 kts 53°
2026-05-04 20:05 26.26100 50.65006 28 ft 16 kts 33°
2026-05-04 20:05 26.26155 50.64973 27 ft 11 kts 302°
2026-05-04 20:05 26.26243 50.64822 24 ft 53 kts 303°
2026-05-04 20:05 26.26587 50.64221 24 ft 129 kts 302°
2026-05-04 20:06 26.27180 50.63183 184 ft 175 kts 304°
2026-05-04 20:06 26.27860 50.62074 1027 ft 171 kts 312°
2026-05-04 20:06 26.28609 50.61047 1948 ft 169 kts 314°
2026-05-04 20:06 26.29371 50.60070 2822 ft 162 kts 314°
2026-05-04 20:07 26.30233 50.59319 3521 ft 155 kts 335°
2026-05-04 20:07 26.31311 50.59020 3966 ft 169 kts 356°
2026-05-04 20:07 26.32546 50.59219 4296 ft 194 kts 16°
2026-05-04 20:07 26.33647 50.60255 4549 ft 230 kts 56°
2026-05-04 20:08 26.33989 50.62108 4782 ft 265 kts 94°
2026-05-04 20:08 26.33335 50.64116 5265 ft 285 kts 117°
2026-05-04 20:08 26.32384 50.66093 5943 ft 293 kts 115°
2026-05-04 20:08 26.31496 50.68162 6650 ft 298 kts 112°
2026-05-04 20:09 26.30677 50.70301 7439 ft 301 kts 110°
2026-05-04 20:09 26.29909 50.72448 8259 ft 303 kts 109°
2026-05-04 20:09 26.29148 50.74659 9126 ft 306 kts 108°
2026-05-04 20:09 26.28397 50.76885 9989 ft 309 kts 108°
2026-05-04 20:10 26.27634 50.79179 10569 ft 324 kts 108°
2026-05-04 20:10 26.26828 50.81618 10931 ft 345 kts 108°
2026-05-04 20:10 26.25985 50.84175 11263 ft 365 kts 108°
2026-05-04 20:10 26.25088 50.86890 11625 ft 381 kts 108°
2026-05-04 20:11 26.24159 50.89701 12215 ft 389 kts 109°
2026-05-04 20:11 26.23214 50.92554 12901 ft 395 kts 109°
2026-05-04 20:11 26.22258 50.95443 13595 ft 400 kts 109°
2026-05-04 20:11 26.21289 50.98370 14236 ft 404 kts 110°
2026-05-04 20:12 26.20315 51.01311 14719 ft 406 kts 110°
2026-05-04 20:12 26.19333 51.04275 14939 ft 412 kts 110°
2026-05-04 20:12 26.18314 51.07345 14918 ft 424 kts 110°
2026-05-04 20:12 26.17296 51.10411 14799 ft 426 kts 110°
2026-05-04 20:13 26.16268 51.13505 14778 ft 433 kts 110°
2026-05-04 20:13 26.15222 51.16652 14779 ft 434 kts 110°
2026-05-04 20:13 26.14172 51.19807 14779 ft 435 kts 110°
2026-05-04 20:13 26.13121 51.22963 14780 ft 435 kts 110°
2026-05-04 20:14 26.12070 51.26120 14780 ft 435 kts 110°
2026-05-04 20:14 26.11013 51.29288 14779 ft 435 kts 110°
2026-05-04 20:14 26.09962 51.32438 14780 ft 435 kts 110°
2026-05-04 20:14 26.08907 51.35596 14777 ft 435 kts 110°
2026-05-04 20:15 26.07846 51.38756 14777 ft 436 kts 111°
2026-05-04 20:15 26.06563 51.41814 14780 ft 436 kts 118°
2026-05-04 20:15 26.05088 51.44769 14777 ft 436 kts 120°
2026-05-04 20:15 26.03590 51.47703 14777 ft 436 kts 120°
2026-05-04 20:16 26.02107 51.50608 14775 ft 436 kts 120°
2026-05-04 20:16 26.00610 51.53546 14774 ft 436 kts 120°
2026-05-04 20:16 25.99114 51.56486 14774 ft 436 kts 120°
2026-05-04 20:16 25.97617 51.59428 14774 ft 436 kts 120°
2026-05-04 20:17 25.96127 51.62357 14772 ft 436 kts 120°
2026-05-04 20:17 25.94633 51.65292 14771 ft 436 kts 120°
2026-05-04 20:17 25.93140 51.68225 14766 ft 436 kts 120°
2026-05-04 20:17 25.91650 51.71151 14771 ft 435 kts 120°
2026-05-04 20:18 25.90176 51.74048 14775 ft 436 kts 120°
2026-05-04 20:18 25.88721 51.77008 14774 ft 436 kts 119°
2026-05-04 20:18 25.87282 51.79968 14774 ft 436 kts 119°
2026-05-04 20:18 25.85826 51.82934 14770 ft 435 kts 120°
2026-05-04 20:19 25.84043 51.85636 14767 ft 433 kts 136°
2026-05-04 20:19 25.81640 51.87622 14770 ft 430 kts 154°
2026-05-04 20:19 25.78851 51.88757 14771 ft 426 kts 167°
2026-05-04 20:19 25.75974 51.89563 14767 ft 426 kts 168°
2026-05-04 20:20 25.73095 51.90349 14767 ft 426 kts 168°
2026-05-04 20:20 25.70214 51.91152 14771 ft 426 kts 168°
2026-05-04 20:20 25.67373 51.91956 14771 ft 426 kts 167°
2026-05-04 20:20 25.64467 51.92527 14771 ft 423 kts 179°
2026-05-04 20:21 25.61568 51.92189 14776 ft 418 kts 198°
2026-05-04 20:21 25.58926 51.90844 14777 ft 412 kts 217°
2026-05-04 20:21 25.54626 51.86819 14768 ft 410 kts 224°
2026-05-04 20:22 25.52482 51.84717 14770 ft 411 kts 223°
2026-05-04 20:22 25.50328 51.82630 14771 ft 411 kts 223°
2026-05-04 20:22 25.48026 51.80743 14768 ft 413 kts 214°
2026-05-04 20:22 25.45552 51.79123 14766 ft 414 kts 212°
2026-05-04 20:23 25.43053 51.77555 14765 ft 411 kts 212°
2026-05-04 20:23 25.40561 51.75993 14766 ft 413 kts 212°
2026-05-04 20:23 25.38057 51.74421 14766 ft 414 kts 212°
2026-05-04 20:23 25.35581 51.72864 14766 ft 414 kts 212°
2026-05-04 20:24 25.33064 51.71310 14758 ft 415 kts 208°
2026-05-04 20:24 25.30294 51.70369 14776 ft 420 kts 190°
2026-05-04 20:24 25.27368 51.70443 14773 ft 425 kts 171°
2026-05-04 20:24 25.24574 51.71536 14777 ft 429 kts 153°
2026-05-04 20:25 25.21985 51.73172 14767 ft 430 kts 151°
2026-05-04 20:25 25.19351 51.74745 14772 ft 429 kts 154°
2026-05-04 20:25 25.16661 51.76177 14772 ft 428 kts 157°
2026-05-04 20:25 25.13938 51.77509 14772 ft 428 kts 158°
2026-05-04 20:26 25.12116 51.78366 14774 ft 427 kts 159°
2026-05-04 20:26 25.08473 51.80022 14774 ft 427 kts 159°
2026-05-04 20:26 25.05713 51.81253 14776 ft 427 kts 160°
2026-05-04 20:26 25.02942 51.82462 14779 ft 427 kts 160°
2026-05-04 20:27 25.01104 51.83248 14780 ft 427 kts 160°
2026-05-04 20:27 24.98322 51.84434 14781 ft 427 kts 160°
2026-05-04 20:27 24.95549 51.85617 14785 ft 426 kts 160°
2026-05-04 20:27 24.92789 51.86795 14785 ft 426 kts 160°
2026-05-04 20:28 24.90015 51.87979 14785 ft 426 kts 160°
2026-05-04 20:28 24.87252 51.89158 14785 ft 426 kts 160°
2026-05-04 20:28 24.84489 51.90336 14785 ft 426 kts 160°
2026-05-04 20:28 24.81701 51.91391 14697 ft 420 kts 166°
2026-05-04 20:29 24.78873 51.91871 14302 ft 398 kts 180°
2026-05-04 20:29 24.76230 51.91590 13848 ft 369 kts 195°
2026-05-04 20:29 24.73900 51.90639 13169 ft 349 kts 210°
2026-05-04 20:29 24.71970 51.89124 12393 ft 334 kts 226°
2026-05-04 20:30 24.70537 51.87233 11709 ft 320 kts 240°
2026-05-04 20:30 24.69576 51.85049 11283 ft 312 kts 254°
2026-05-04 20:30 24.69098 51.82760 10884 ft 304 kts 266°
2026-05-04 20:30 24.69084 51.80465 10497 ft 296 kts 278°
2026-05-04 20:31 24.69506 51.78274 10074 ft 290 kts 290°
2026-05-04 20:31 24.70316 51.76273 9703 ft 284 kts 302°
2026-05-04 20:31 24.71473 51.74576 9285 ft 279 kts 317°
2026-05-04 20:31 24.73071 51.73416 8867 ft 276 kts 338°
2026-05-04 20:32 24.74939 51.72960 8461 ft 273 kts 352°
2026-05-04 20:32 24.76826 51.72780 8041 ft 271 kts 354°
2026-05-04 20:32 24.78701 51.72633 7646 ft 270 kts 354°
2026-05-04 20:32 24.80574 51.72483 7252 ft 268 kts 354°
2026-05-04 20:33 24.82426 51.72329 6857 ft 266 kts 354°
2026-05-04 20:33 24.84272 51.72174 6458 ft 264 kts 354°
2026-05-04 20:33 24.86077 51.72021 6065 ft 262 kts 354°
2026-05-04 20:33 24.87892 51.71866 5658 ft 260 kts 354°
2026-05-04 20:34 24.89669 51.71714 5253 ft 259 kts 354°
2026-05-04 20:34 24.91466 51.71559 4854 ft 258 kts 355°
2026-05-04 20:34 24.93254 51.71405 4460 ft 256 kts 355°
2026-05-04 20:34 24.95013 51.71254 4055 ft 255 kts 355°
2026-05-04 20:35 24.96781 51.71102 3657 ft 255 kts 355°
2026-05-04 20:35 24.98545 51.70951 3267 ft 254 kts 355°
2026-05-04 20:35 25.00301 51.70798 2870 ft 252 kts 355°
2026-05-04 20:35 25.02034 51.70650 2577 ft 244 kts 355°
2026-05-04 20:36 25.03674 51.70511 2488 ft 228 kts 354°
2026-05-04 20:36 25.05192 51.70381 2482 ft 209 kts 355°
2026-05-04 20:36 25.06585 51.70262 2487 ft 194 kts 354°
2026-05-04 20:36 25.07917 51.70137 2494 ft 191 kts 353°
2026-05-04 20:37 25.09214 51.69839 2503 ft 190 kts 342°
2026-05-04 20:37 25.10462 51.69336 2495 ft 191 kts 339°
2026-05-04 20:37 25.11680 51.68796 2492 ft 191 kts 339°
2026-05-04 20:37 25.12914 51.68247 2492 ft 191 kts 339°
2026-05-04 20:38 25.14146 51.67703 2493 ft 191 kts 339°
2026-05-04 20:38 25.15385 51.67158 2493 ft 191 kts 339°
2026-05-04 20:38 25.16618 51.66613 2493 ft 191 kts 339°
2026-05-04 20:38 25.17853 51.66068 2493 ft 191 kts 339°
2026-05-04 20:39 25.19067 51.65485 2483 ft 191 kts 331°
2026-05-04 20:39 25.19934 51.64375 2499 ft 197 kts 295°
2026-05-04 20:39 25.20030 51.62848 2494 ft 208 kts 261°
2026-05-04 20:39 25.19293 51.61480 2485 ft 218 kts 225°
2026-05-04 20:40 25.17916 51.60735 2491 ft 226 kts 191°
2026-05-04 20:40 25.16352 51.60855 2507 ft 227 kts 164°
2026-05-04 20:40 25.14839 51.61383 2506 ft 229 kts 159°
2026-05-04 20:40 25.13345 51.62000 2489 ft 230 kts 155°
2026-05-04 20:41 25.12122 51.63078 2492 ft 224 kts 120°
2026-05-04 20:41 25.11626 51.64634 2492 ft 212 kts 86°
2026-05-04 20:41 25.11764 51.66221 2509 ft 207 kts 71°
2026-05-04 20:41 25.12578 51.67427 2502 ft 194 kts 26°
2026-05-04 20:42 25.13856 51.67697 2469 ft 188 kts 358°
2026-05-04 20:42 25.14983 51.67443 2215 ft 189 kts 337°
2026-05-04 20:42 25.16161 51.66797 1925 ft 189 kts 335°
2026-05-04 20:42 25.17368 51.66249 1682 ft 185 kts 343°
2026-05-04 20:43 25.18553 51.65776 1419 ft 175 kts 339°
2026-05-04 20:43 25.19625 51.65288 1197 ft 162 kts 338°
2026-05-04 20:43 25.20636 51.64839 1007 ft 151 kts 338°
2026-05-04 20:43 25.21579 51.64426 835 ft 141 kts 337°
2026-05-04 20:44 25.22468 51.64033 667 ft 136 kts 337°
2026-05-04 20:44 25.23361 51.63640 513 ft 140 kts 336°
2026-05-04 20:44 25.24272 51.63236 327 ft 142 kts 336°
2026-05-04 20:44 25.25187 51.62838 141 ft 141 kts 338°
2026-05-04 20:45 25.26073 51.62445 34 ft 129 kts 339°
2026-05-04 20:45 25.26784 51.62133 29 ft 91 kts 338°
2026-05-04 20:45 25.27246 51.61925 32 ft 53 kts 340°
2026-05-04 20:45 25.27477 51.61831 33 ft 26 kts 338°
2026-05-04 20:46 25.27607 51.61724 32 ft 21 kts 267°
2026-05-04 20:46 25.27556 51.61573 35 ft 21 kts 244°
2026-05-04 20:46 25.27434 51.61535 35 ft 21 kts 154°
2026-05-04 20:46 25.27295 51.61596 35 ft 23 kts 159°
2026-05-04 20:47 25.27139 51.61665 35 ft 26 kts 156°
2026-05-04 20:47 25.27050 51.61602 36 ft 16 kts 251°
2026-05-04 20:47 25.27011 51.61480 36 ft 18 kts 240°
2026-05-04 20:47 25.26901 51.61404 36 ft 20 kts 203°
2026-05-04 20:48 25.26783 51.61341 36 ft 12 kts 229°
2026-05-04 20:48 25.26795 51.61287 36 ft 8 kts 307°
2026-05-04 20:48 25.26818 51.61239 36 ft 0 kts 292°